www.pogodaiklimat.ru

АРХИВ ПОГОДЫ в Лос-Анджелесе

Время (UTC), дата Ветер
(напр.,м/с)
 
Видим.   Явления Облачность Т
(С)
Тd
(С)
f
(%)
Тe
(С)
Тes
(С)
Комфортность

P
(гПа)

Po
(гПа)
Тmin
(С)
Tmax
(С)
R
(мм)
SD
(см)
21:53 16.11 З   14 км    8/2 1800 м
[средняя верхняя] 
+22.0  +10.0  46  +24  +25  комфорт  1013.9  1009.2         
22:53 16.11 З  16 км    8/2 1800 м
[средняя] 
+22.0  +12.0  53  +24  +25  комфорт  1013.5  1008.9         
23:53 16.11 З  16 км    8/2 1800 м
[средняя] 
+21.0  +12.0  56  +23  +23  комфорт  1013.6  1009.2  +20.6  +24.4     
00:53 17.11 З  16 км    8/0 2700 м
[средняя] 
+19.0  +14.0  73  +20  +20    1014.1  1009.5         
01:53 17.11 З  16 км    8/0 3000 м
[средняя] 
+21.0  +13.0  60  +24  +24  комфорт  1014.3  1009.9         
02:53 17.11 З  16 км    8/0 3000 м
[средняя] 
+19.0  +14.0  73  +20  +20    1014.6  1010.2         
03:53 17.11 СЗ  16 км    10/0 3000 м
[средняя] 
+21.7  +12.2  55  +24  +24  комфорт  1014.8  1010.2         
04:53 17.11 З  16 км    8/0 3000 м
[средняя] 
+20.0  +12.2  61  +22  +22  комфорт  1015.2  1010.9         
05:53 17.11 З  16 км    8/0 2850 м
[средняя] 
+19.0  +14.0  73  +20  +20    1015.1  1010.9  +18.9       
06:53 17.11 нст  16 км    8/0 2550 м
[средняя] 
+18.9  +13.9  73  +21  +21  комфорт  1014.9  1010.6         
07:53 17.11 нст  16 км    8/2 720 м
[средняя] 
+19.0  +14.0  73  +20  +20    1014.6  1010.2         
08:53 17.11 ЮЗ  16 км    8/2 840 м
[средняя] 
+19.0  +13.0  68  +20  +20    1015.0  1010.6         
09:53 17.11 З  16 км    8/0 2550 м
[средняя] 
+18.9  +14.4  75  +20  +20    1015.0  1010.6         
10:53 17.11 ЮЗ  16 км    8/0 2550 м
[средняя] 
+18.3  +13.9  76  +19  +19    1015.3  1010.9         
11:53 17.11 З  16 км    8/0 2250 м
[средняя] 
+18.0  +15.0  83  +18  +18    1015.5  1011.2  +17.8  +20.0     
12:53 17.11 З  16 км  слабый дождь  10/2 1200 м
[средняя] 
+17.8  +15.6  87  +18  +18      1011.2         
13:53 17.11 штиль  16 км    10/2 360 м
[средняя] 
+18.3  +15.0  81  +19  +19      1011.6         
14:53 17.11 З   16 км    10/10 420 м  +17.8  +16.1  90  +17  +17      1012.6         
15:53 17.11 З   16 км    10/0 2100 м
[средняя] 
+18.0  +17.0  94  +17  +17    1017.9  1013.3         
16:53 17.11 З  16 км    8/2 360 м
[средняя верхняя] 
+19.0  +17.0  88  +20  +20    1018.5  1013.9         
17:53 17.11 З  16 км    8/2 300 м
[средняя верхняя] 
+20.0  +16.7  81  +22  +23  комфорт  1018.7  1014.3  +17.8  +20.0     
18:53 17.11 З  16 км    8/2 360 м
[средняя верхняя] 
+21.0  +16.0  73  +24  +25  комфорт  1018.4  1013.9         
19:53 17.11 ЮЗ  16 км    8/2 510 м
[средняя верхняя] 
+21.0  +16.0  73  +24  +26  комфорт  1017.7  1013.3         
20:53 17.11 З  16 км    8/2 450 м
[средняя верхняя] 
+20.6  +15.6  73  +23  +25  комфорт    1012.6         
21:53 17.11 З  16 км    8/2 300 м
[средняя верхняя] 
+20.6  +15.6  73  +23  +24  комфорт    1012.2         
22:53 17.11 З  16 км    8/2 300 м
[средняя верхняя] 
+19.0  +16.0  83  +20  +21    1016.6  1012.2         
23:53 17.11 З  16 км    5/2 300 м
[средняя] 
+19.0  +16.0  83  +20  +20    1016.5  1012.2  +18.9  +21.1     
00:53 18.11 ЮЗ  16 км    5/5 300 м  +18.3  +15.6  84  +18  +19    1016.5  1011.9         
01:53 18.11 ЮЗ  16 км    5/2 720 м
[верхняя] 
+17.8  +16.1  90  +17  +17    1017.0  1012.6         
02:53 18.11 ЮЗ  16 км    2/2 750 м  +17.8  +14.4  80  +17  +17    1017.1  1012.6         
03:53 18.11 З  16 км    2/2 690 м  +17.8  +14.4  80  +17  +17    1017.9  1013.3         
04:53 18.11 З  16 км    ясно  +17.2  +13.3  78  +17  +17    1018.4  1013.9         
05:53 18.11 ЮЗ  16 км    ясно  +16.7  +12.8  78  +16  +16    1018.7  1014.3    +18.9     
06:53 18.11 В  16 км    ясно  +15.6  +12.8  83  +15  +15    1019.1  1014.6         
07:53 18.11 ЮЗ  16 км    ясно  +16.7  +13.3  80  +17  +17    1019.4  1014.9         
08:53 18.11 штиль  16 км    2/2 270 м  +15.6  +13.3  86  +15  +15    1019.4  1014.9         
09:53 18.11 штиль  16 км    2/2 240 м  +13.9  +12.2  89  +13  +13    1019.7  1015.3         
10:53 18.11 штиль  16 км    2/2 240 м  +15.0  +12.8  87  +15  +15    1019.8  1015.3         
11:53 18.11 штиль  16 км    ясно  +14.4  +12.8  90  +14  +14    1019.4  1014.9    +17.2     
12:53 18.11 штиль  16 км    2/2 270 м  +13.3  +12.2  93  +13  +13    1019.5  1014.9         
13:53 18.11 нст  16 км    2/0 4500 м
[средняя] 
+15.0  +12.8  87  +14  +14    1019.9  1015.3         
14:53 18.11 нст  16 км    5/5 420 м  +14.4  +12.8  90  +14  +14    1020.4  1015.9         
15:53 18.11 С  16 км    2/2 420 м  +16.7  +11.7  72  +17  +17    1021.1  1016.6         
16:53 18.11 С  16 км    ясно  +19.4  +12.2  63  +21  +22  комфорт  1021.2  1016.6         
17:53 18.11 нст  16 км    ясно  +21.1  +12.8  59  +23  +26  комфорт  1021.3  1016.6    +21.7     
18:53 18.11 нст  16 км    2/0 6600 м
[верхняя] 
+23.3  +11.1  46  +26  +30  жарко  1020.6  1015.9         
19:53 18.11 З  16 км    2/0 6600 м
[верхняя] 
+22.8  +12.2  51  +25  +29  комфорт  1019.8  1015.3         
20:53 18.11 З  16 км    2/0 6900 м
[верхняя] 
+23.0  +11.0  47  +25  +30  комфорт  1018.9  1014.3         

 

Местоположение метеостанции Los Angeles International Airport: широта 33.9381 долгота -118.3889 высота над уровнем моря 38 м.

В архиве по умолчанию представлена погода в Лос-Анджелесе за последние 1-2 суток. Обновление информации о фактической погоде в базе происходит ежечасно! Архивные данные за месяц целиком и за предыдущие месяцы Вы можете получить, выбрав интересующий диапазон дат из раскрывающегося списка и нажав кнопку "Ввод!".

Внимание! Архив погоды МЕТАР в базе сайта в настоящее время начинается c 1 января 2013 г. Нет смысла пытаться выбрать более раннюю дату.

Внимание! Время в таблицах - всемирное. Для получения местного времени необходимо прибавить поправку, которая в Лос-Анджелесе равна -8 ч.

Ветер - указаны скорость ветра в м/с и направление, откуда дует ветер: С - северный, СВ - северо-восточный, В - восточный, ЮВ - юго-восточный, Ю - южный, ЮЗ - юго-западный, З - западный, СЗ - северо-западный.
Видимость - горизонтальная дальность видимости в метрах или километрах. При видимости от 1 до 10 км при отсутствии осадков обычно наблюдается дымка, при ухудшении видимости до 1 км и менее - туман. В сухую погоду видимость может ухудшаться дымом, пылью или мглою.
Атмосферные явления - указаны явления, наблюдавшиеся в указанный момент времени.
Облачность - указаны через наклонную черту верхняя и нижняя облачность в баллах и высота нижней границы облаков в метрах. Внимание: облачность, как и прочие метеорологические величины в США измеряются автоматическими метеостанциями. Указанные значения в баллах носят условный характер и показывают процент времени, в течение которого, в среднем, лазерный луч высотомера отражался от облаков обратно.
T - Температура воздуха - температура, измеренная на высоте 2 м над землей.
Td - Температура точки росы - температура, при понижении до которой содержащийся в воздухе водяной пар достигнет насыщения.
f - Относительная влажность воздуха - влажноcть воздуха, измеренная на высоте 2 м над землей.
Te - Эффективная температура - температура, которую ощущает одетый по сезону человек в тени. Характеристика душности погоды. При расчете учитывается влияние влажности воздуха и скорости ветра на теплоощущения человека.
Tes - Эффективная температура на солнце - температура, которую ощущает человек, с поправкой на солнечный нагрев. Характеристика знойности погоды. Зависит от высоты солнца над горизонтом, облачности и скорости ветра. Ночью, в пасмурную погоду, а также при ветре 12 м/с и более поправка равна нулю.
P - Атмосферное давление - приведенное к уровню моря атмосферное давление.
Po - Атмосферное давление - измеренное на уровне метеостанции атмосферное давление.
Tmin - Минимальная температура - минимум температуры воздуха на высоте 2 м над землей.
Tmax - Максимальная температура - максимум температуры воздуха на высоте 2 м над землей.
R - Количество осадков - Количество выпавших осадков за 3 или 6 часов, мм.
SD - Снежный покров - Высота снежного покрова, см.